Location: La Oliva
(42.2466°N, 2.9955°E)
Time: 10:48:15
(UTC+00:00)

Cosmos 389 Rocket - Pass Details

Date: 22 April 2021
Orbit: 441 x 472 km, 81.1° (Epoch: 10 May)

Event Time Altitude Azimuth Distance (km) Brightness Sun altitude
Rises 19:16:15 0° 166° (SSE) 2,468 5.8 -7.5°
Reaches altitude 10° 19:18:27 10° 155° (SSE) 1,605 4.7 -7.9°
Maximum altitude 19:21:33 30° 93° (E) 864 3.3 -8.4°
Drops below altitude 10° 19:24:42 10° 31° (NNE) 1,632 5.2 -8.9°
Sets 19:26:58 0° 21° (NNE) 2,518 6.3 -9.3°
